Regional Weather Roundup
Issued by NWS

Home | Current Version | Previous Version | Graphics & Text | Print | Product List | Glossary On
Versions: 1 2 3 4 5 6 7 8 9 10 11 12 13 14 15 16 17 18 19 20 21 22 23 24 25 26 27 28 29 30 31 32 33 34 35 36 37 38 39 40 41 42 43 44 45 46 47 48 49 50
479
ASUS43 KOAX 101402
RWRNE

WEATHER ROUNDUP FOR NEBRASKA
NATIONAL WEATHER SERVICE OMAHA NE
800 AM CST SAT DEC 10 2016

NOTES: SATELLITE DATA IS BEING USED TO AUGMENT CLOUD COVER ABOVE
       12000 FEET.
       "FAIR" INDICATES FEW OR NO CLOUDS BELOW 12,000 FEET WITH NO
       SIGNIFICANT WEATHER AND/OR OBSTRUCTIONS TO VISIBILITY.

  * THESE STATIONS DO NOT REPORT WEATHER SUCH AS RAIN...SNOW OR FOG.

NEZ001>004-019>022-054>056-101500-
NEBRASKA PANHANDLE

CITY           SKY/WX    TMP DP  RH WIND       PRES   REMARKS
SCOTTSBLUFF    CLOUDY    15  11  83 E9        29.92F WCI   3
ALLIANCE       CLOUDY    13  11  92 SE12      29.92F WCI  -1
CHADRON        CLOUDY     5   1  83 CALM      29.98F
KIMBALL        CLOUDY    29  24  81 S8        29.89F WCI  21
SIDNEY         CLOUDY    18  15  88 S13       29.94F WCI   5
$$

NEZ057>060-069>072-079>082-101500-
SOUTHWEST NEBRASKA

CITY           SKY/WX    TMP DP  RH WIND       PRES   REMARKS
NORTH PLATTE   CLOUDY    18  13  80 SE7       30.09F WCI   9
IMPERIAL       CLOUDY    17  13  84 SE12      30.02F WCI   4
LEXINGTON      CLOUDY    20  15  79 SE12      30.16F WCI   8
MCCOOK         CLOUDY    16  11  80 E8        30.13F WCI   5
OGALLALA       CLOUDY    19  16  87 E3        30.02F
$$

NEZ005>010-023>029-035>040-094-101500-
NORTH CENTRAL NEBRASKA

CITY           SKY/WX    TMP DP  RH WIND       PRES   REMARKS
VALENTINE      CLOUDY     8   3  80 E8        30.12S WCI  -4
AINSWORTH      FLURRIES  11   9  92 SE9       30.11F WCI  -2
BROKEN BOW     CLOUDY    18  15  88 SE14G23   30.14F WCI   4
O`NEILL        CLOUDY    13  10  88 E10       30.21F WCI  -1
ORD            CLOUDY    19  14  81 SE10      30.19F WCI   7
THEDFORD       CLOUDY    17  15  91 CALM      30.09F
$$

NEZ041-046>049-061>064-073>077-083>087-101500-
SOUTH CENTRAL NEBRASKA

CITY           SKY/WX    TMP DP  RH WIND       PRES   REMARKS
GRAND ISLAND   CLOUDY    20  16  84 SE13      30.25F WCI   7
AURORA         CLOUDY    21  17  86 SE10      30.26F WCI   9
HASTINGS       CLOUDY    21  14  74 SE15      30.25F WCI   8
HEBRON         CLOUDY    25  18  74 SE9       30.31F WCI  15
HOLDREGE       CLOUDY    18  13  82 SE9       30.19F WCI   7
KEARNEY *      CLOUDY    19  12  73 SE13      30.20F WCI   7
YORK           CLOUDY    21  18  86 SE12      30.29F WCI   9
$$

NEZ011>018-030>034-042>045-101500-
NORTHEAST NEBRASKA

CITY           SKY/WX    TMP DP  RH WIND       PRES   REMARKS
NORFOLK        LGT SNOW  17  14  88 E9        30.28F VSB 1   WCI   6
ALBION         CLOUDY    19  17  88 SE10      30.25F WCI   8
BLAIR          LGT SNOW  21  19  91 E7        30.36F WCI  13
FREMONT        LGT SNOW  21  19  92 E7        30.35F WCI  12
TEKAMAH        LGT SNOW  20  17  88 SE7       30.39F FOG     WCI  11
WAYNE          LGT SNOW  17  15  89 E9        30.33F WCI   6
$$

NEZ050>053-065>068-078-088>093-101500-
SOUTHEAST NEBRASKA

CITY           SKY/WX    TMP DP  RH WIND       PRES   REMARKS
LINCOLN        CLOUDY    23  16  74 E8        30.35F WCI  14
OMAHA EPPLEY   LGT SNOW  22  17  81 E5        30.41R FOG     WCI  16
BEATRICE       CLOUDY    26  19  76 SE5       30.35F WCI  20
FALLS CITY     CLOUDY    26  17  68 SE6       30.39F WCI  19
NEBRASKA CITY  CLOUDY    25  14  62 SE7       30.38F WCI  17
PLATTSMOUTH    CLOUDY    24  14  66 E7        30.37F WCI  16
$$

NEZ044-045-051>053-067-101500-
OMAHA AREA

CITY           SKY/WX    TMP DP  RH WIND       PRES   REMARKS
OMAHA EPPLEY   LGT SNOW  22  17  81 E5        30.41R FOG     WCI  16
BLAIR          LGT SNOW  21  19  91 E7        30.36F WCI  13
FREMONT        LGT SNOW  21  19  92 E7        30.35F WCI  12
MILLARD        CLOUDY    25  19  79 E3        30.38F
OFFUTT AFB     CLOUDY    24  17  75 E6        30.38F WCI  17
PLATTSMOUTH    CLOUDY    24  14  66 E7        30.37F WCI  16
WAHOO          CLOUDY    22  18  83 E8        30.36F WCI  13
$$




USA.gov is the U.S. government's official web portal to all federal, state and local government web resources and services.